Location: Cieszkowy
(50.3290°N, 20.5336°E)
Time: 23:03:44
(UTC+00:00)

Cosmos 2058 Rocket - Pass Details

Date: 15 June 2024
Orbit: 606 x 636 km, 82.5° (Epoch: 18 July)

Event Time Altitude Azimuth Distance (km) Brightness Sun altitude
Rises 01:30:42 0° 351° (N) 2,933 7.2 -7.1°
Reaches altitude 10° 01:32:59 10° 354° (N) 2,016 6.4 -6.9°
Maximum altitude 01:37:26 68° 78° (ENE) 674 3.5 -6.4°
Drops below altitude 10° 01:41:48 10° 162° (SSE) 1,980 5.4 -5.9°
Sets 01:44:01 0° 165° (SSE) 2,876 6.2 -5.7°
